| time (UTC) | temp F | wind direction | speed knots | gust knots | rain 1hr in | rain 24hr in | rain mn in | humidity % | barometer mb |
| 20260507190044 | 57 | 230 | 4.3 | 12.2 | 0.00 | 0.00 | 0.00 | 45 | 1014.8 |
| 20260507184547 | 56 | 210 | 7.8 | 13.9 | 0.00 | 0.00 | 0.00 | 46 | 1015.1 |
| 20260507183053 | 56 | 215 | 7.0 | 14.8 | 0.00 | 0.00 | 0.00 | 44 | 1015.3 |
| 20260507181556 | 56 | 245 | 7.8 | 13.9 | 0.00 | 0.00 | 0.00 | 43 | 1015.5 |
| 20260507180055 | 56 | 248 | 6.1 | 13.9 | 0.00 | 0.00 | 0.00 | 44 | 1015.6 |
| 20260507174603 | 55 | 252 | 2.6 | 10.4 | 0.00 | 0.00 | 0.00 | 44 | 1015.8 |
| 20260507173105 | 55 | 195 | 5.2 | 15.6 | 0.00 | 0.00 | 0.00 | 45 | 1015.9 |
| 20260507171549 | 54 | 248 | 7.8 | 18.2 | 0.00 | 0.00 | 0.00 | 45 | 1015.8 |
| 20260507170111 | 54 | 240 | 6.1 | 18.2 | 0.00 | 0.00 | 0.00 | 47 | 1015.8 |
| 20260507164556 | 53 | 221 | 7.8 | 18.2 | 0.00 | 0.00 | 0.00 | 47 | 1015.8 |
| 20260507163058 | 53 | 269 | 7.0 | 11.3 | 0.00 | 0.00 | 0.00 | 47 | 1015.9 |
| 20260507161601 | 52 | 275 | 0.9 | 7.0 | 0.00 | 0.00 | 0.00 | 50 | 1016.0 |
| 20260507160046 | 50 | 271 | 1.7 | 7.0 | 0.00 | 0.00 | 0.00 | 50 | 1015.8 |
| 20260507154546 | 50 | 277 | 0.9 | 6.1 | 0.00 | 0.00 | 0.00 | 51 | 1016.1 |
| 20260507153051 | 50 | 252 | 2.6 | 10.4 | 0.00 | 0.00 | 0.00 | 49 | 1016.5 |
| 20260507151559 | 51 | 268 | 1.7 | 7.8 | 0.00 | 0.00 | 0.00 | 49 | 1016.6 |
| 20260507150120 | 50 | 253 | 6.1 | 11.3 | 0.00 | 0.00 | 0.00 | 50 | 1016.6 |
| 20260507144548 | 49 | 278 | 6.1 | 14.8 | 0.00 | 0.00 | 0.00 | 50 | 1016.4 |
| 20260507143058 | 48 | 266 | 9.6 | 19.1 | 0.00 | 0.00 | 0.00 | 50 | 1016.3 |
| 20260507141545 | 48 | 266 | 9.6 | 19.1 | 0.00 | 0.00 | 0.00 | 51 | 1016.0 |
| 20260507140112 | 46 | 280 | 11.3 | 20.0 | 0.00 | 0.00 | 0.00 | 52 | 1015.9 |
| 20260507134616 | 46 | 225 | 5.2 | 16.5 | 0.00 | 0.00 | 0.00 | 54 | 1015.6 |
| 20260507133106 | 45 | 261 | 7.0 | 16.5 | 0.00 | 0.00 | 0.00 | 54 | 1015.4 |
| 20260507131550 | 45 | 257 | 6.1 | 16.5 | 0.00 | 0.00 | 0.00 | 55 | 1015.4 |
| 20260507130056 | 45 | 284 | 10.4 | 20.0 | 0.00 | 0.00 | 0.00 | 54 | 1015.2 |
| 20260507124548 | 45 | 223 | 7.0 | 16.5 | 0.00 | 0.00 | 0.00 | 54 | 1015.1 |
| 20260507123052 | 44 | 304 | 8.7 | 20.0 | 0.00 | 0.00 | 0.00 | 54 | 1015.0 |
| 20260507114541 | 43 | 257 | 8.7 | 18.2 | 0.00 | 0.00 | 0.00 | 55 | 1014.8 |
| 20260507113050 | 43 | 248 | 5.2 | 14.8 | 0.00 | 0.00 | 0.00 | 55 | 1014.8 |
| 20260507111559 | 43 | 225 | 9.6 | 20.9 | 0.00 | 0.00 | 0.00 | 55 | 1014.5 |
| 20260507110047 | 43 | 242 | 8.7 | 17.4 | 0.00 | 0.00 | 0.00 | 54 | 1014.6 |
| 20260507104551 | 43 | 234 | 7.8 | 20.9 | 0.00 | 0.00 | 0.00 | 54 | 1014.6 |
| 20260507103122 | 43 | 233 | 11.3 | 21.7 | 0.00 | 0.00 | 0.00 | 54 | 1014.4 |
| 20260507101547 | 43 | 248 | 9.6 | 19.1 | 0.00 | 0.00 | 0.00 | 54 | 1014.6 |
| 20260507100052 | 43 | 246 | 9.6 | 20.9 | 0.00 | 0.00 | 0.00 | 53 | 1014.6 |
| 20260507094544 | 43 | 233 | 9.6 | 22.6 | 0.00 | 0.00 | 0.00 | 53 | 1014.7 |
| 20260507093051 | 43 | 252 | 7.0 | 15.6 | 0.00 | 0.00 | 0.00 | 54 | 1014.8 |
| 20260507090059 | 43 | 223 | 10.4 | 20.0 | 0.00 | 0.00 | 0.00 | 53 | 1014.8 |
| 20260507083045 | 43 | 204 | 8.7 | 21.7 | 0.00 | 0.00 | 0.00 | 54 | 1014.7 |
| 20260507081555 | 42 | 259 | 10.4 | 21.7 | 0.00 | 0.00 | 0.00 | 54 | 1014.8 |
| 20260507080042 | 42 | 282 | 8.7 | 23.5 | 0.00 | 0.00 | 0.00 | 53 | 1014.8 |
| 20260507074549 | 42 | 241 | 8.7 | 17.4 | 0.00 | 0.00 | 0.00 | 52 | 1014.9 |
| 20260507073059 | 42 | 209 | 9.6 | 17.4 | 0.00 | 0.00 | 0.00 | 52 | 1014.9 |
| 20260507071546 | 42 | 257 | 11.3 | 23.5 | 0.00 | 0.00 | 0.00 | 53 | 1015.0 |
| 20260507070112 | 41 | 269 | 6.1 | 16.5 | 0.00 | 0.00 | 0.00 | 55 | 1015.2 |
| 20260507064601 | 41 | 310 | 6.1 | 16.5 | 0.00 | 0.00 | 0.00 | 55 | 1015.2 |
| 20260507063047 | 40 | 263 | 3.5 | 16.5 | 0.00 | 0.00 | 0.00 | 58 | 1015.5 |
| 20260507061611 | 38 | 225 | 5.2 | 13.9 | 0.00 | 0.00 | 0.00 | 62 | 1015.8 |
| 20260507060042 | 32 | 209 | 0.9 | 2.6 | 0.00 | 0.00 | 0.00 | 81 | 1015.9 |
| 20260507054549 | 32 | 207 | 0.0 | 7.0 | 0.00 | 0.00 | 0.00 | 82 | 1016.1 |
| 20260507053054 | 33 | 189 | 3.5 | 10.4 | 0.00 | 0.00 | 0.00 | 81 | 1016.2 |
| 20260507051543 | 33 | 194 | 6.1 | 10.4 | 0.00 | 0.00 | 0.00 | 82 | 1016.2 |
| 20260507050050 | 33 | 238 | 5.2 | 12.2 | 0.00 | 0.00 | 0.00 | 81 | 1016.3 |
| 20260507044617 | 33 | 201 | 2.6 | 11.3 | 0.00 | 0.00 | 0.00 | 81 | 1016.2 |
| 20260507043048 | 33 | 251 | 5.2 | 10.4 | 0.00 | 0.00 | 0.00 | 81 | 1016.2 |
| 20260507041552 | 33 | 223 | 6.1 | 15.6 | 0.00 | 0.00 | 0.00 | 80 | 1016.1 |
| 20260507040054 | 34 | 213 | 5.2 | 11.3 | 0.00 | 0.00 | 0.00 | 79 | 1016.3 |
| 20260507034600 | 34 | 238 | 3.5 | 9.6 | 0.00 | 0.00 | 0.00 | 79 | 1016.4 |
| 20260507033104 | 34 | 169 | 1.7 | 10.4 | 0.00 | 0.00 | 0.00 | 78 | 1016.4 |
| 20260507031544 | 34 | 210 | 2.6 | 9.6 | 0.00 | 0.00 | 0.00 | 78 | 1016.6 |
| 20260507030049 | 34 | 227 | 5.2 | 8.7 | 0.00 | 0.00 | 0.00 | 78 | 1016.6 |
| 20260507024601 | 34 | 198 | 3.5 | 8.7 | 0.00 | 0.00 | 0.00 | 77 | 1016.5 |
| 20260507023045 | 34 | 229 | 1.7 | 9.6 | 0.00 | 0.00 | 0.00 | 77 | 1016.4 |
| 20260507021552 | 34 | 224 | 1.7 | 13.0 | 0.00 | 0.00 | 0.00 | 76 | 1016.5 |
| 20260507020042 | 35 | 222 | 2.6 | 10.4 | 0.00 | 0.00 | 0.00 | 75 | 1016.6 |
| 20260507014547 | 35 | 213 | 284.2 | 284.2 | 0.00 | 0.00 | 0.00 | 74 | 1016.4 |
| 20260507013056 | 36 | 180 | 3.5 | 8.7 | 0.00 | 0.00 | 0.00 | 73 | 1016.8 |
| 20260507011546 | 37 | 208 | 4.3 | 9.6 | 0.00 | 0.00 | 0.00 | 71 | 1016.9 |
| 20260507010054 | 38 | 156 | 3.5 | 8.7 | 0.00 | 0.00 | 0.00 | 69 | 1016.9 |
| 20260507004545 | 38 | 198 | 4.3 | 11.3 | 0.00 | 0.00 | 0.00 | 69 | 1016.9 |
| 20260507003049 | 38 | 176 | 3.5 | 13.0 | 0.00 | 0.00 | 0.00 | 68 | 1016.9 |
| 20260507001555 | 39 | 211 | 3.5 | 13.0 | 0.00 | 0.00 | 0.00 | 67 | 1016.9 |
| 20260507000043 | 39 | 171 | 5.2 | 11.3 | 0.00 | 0.00 | 0.00 | 65 | 1017.1 |
| 20260506234552 | 38 | 237 | 5.2 | 10.4 | 0.00 | 0.01 | 0.00 | 66 | 1017.2 |
| 20260506233057 | 38 | 167 | 8.7 | 13.0 | 0.00 | 0.01 | 0.00 | 65 | 1017.4 |
| 20260506231623 | 38 | 218 | 7.0 | 10.4 | 0.00 | 0.01 | 0.00 | 64 | 1017.5 |
| 20260506230052 | 38 | 196 | 5.2 | 11.3 | 0.00 | 0.01 | 0.00 | 65 | 1017.4 |
| 20260506224555 | 38 | 194 | 7.0 | 12.2 | 0.00 | 0.03 | 0.00 | 65 | 1017.5 |
| 20260506223103 | 38 | 190 | 5.2 | 13.0 | 0.00 | 0.03 | 0.00 | 66 | 1017.6 |
| 20260506221550 | 38 | 196 | 284.2 | 284.2 | 0.00 | 0.00 | 0.00 | 66 | 1017.7 |
| 20260506220042 | 37 | 188 | 7.0 | 13.0 | 0.00 | 0.03 | 0.00 | 66 | 1017.9 |
| 20260506214549 | 37 | 166 | 5.2 | 11.3 | 0.00 | 0.05 | 0.00 | 67 | 1017.9 |
| 20260506213059 | 38 | 188 | 6.1 | 12.2 | 0.00 | 0.05 | 0.00 | 65 | 1018.2 |
| 20260506211545 | 37 | 161 | 4.3 | 9.6 | 0.00 | 0.05 | 0.00 | 64 | 1018.5 |
| 20260506210047 | 37 | 228 | 3.5 | 12.2 | 0.00 | 0.05 | 0.00 | 66 | 1018.6 |
| 20260506204557 | 37 | 198 | 6.1 | 11.3 | 0.00 | 0.15 | 0.00 | 62 | 1018.7 |
| 20260506203042 | 37 | 173 | 4.3 | 9.6 | 0.00 | 0.15 | 0.00 | 62 | 1018.9 |
| 20260506201546 | 36 | 168 | 7.0 | 0.0 | 0.00 | 0.00 | 0.00 | 63 | 1018.6 |
| 20260506200056 | 37 | 167 | 5.2 | 13.9 | 0.00 | 0.15 | 0.00 | 61 | 1019.1 |
| 20260506194542 | 37 | 175 | 1.7 | 9.6 | 0.00 | 0.15 | 0.00 | 62 | 1019.2 |
| 20260506193047 | 36 | 161 | 1.7 | 8.7 | 0.00 | 0.15 | 0.00 | 59 | 1019.2 |
| 20260506191557 | 36 | 217 | 3.5 | 11.3 | 0.00 | 0.15 | 0.00 | 60 | 1019.2 |